Location: Keppel Henge
(44.7900°N, 80.9447°W)
Time: 15:59:48
(UTC-05:00)

ISS - Visible Passes

Search period start: 16 November 2018 00:00
Search period end: 26 November 2018 00:00
Orbit: 401 x 408 km, 51.6° (Epoch: 16 November)

Date Brightness Start Highest point End Pass type
(mag) Time Alt. Az. Time Alt. Az. Time Alt. Az.
22 Nov -1.2 18:50:45 10° S 18:51:13 12° S 18:51:13 12° S visible
23 Nov -1.5 18:00:19 10° SSE 18:01:13 11° SE 18:01:31 11° SE visible
23 Nov -0.6 19:33:56 10° SW 19:34:12 12° SW 19:34:12 12° SW visible
24 Nov -2.8 18:41:57 10° SW 18:44:23 36° S 18:44:23 36° S visible
25 Nov -2.3 17:50:17 10° SSW 17:52:57 24° SE 17:54:29 17° E visible
25 Nov -1.0 19:26:03 10° WSW 19:27:09 19° W 19:27:09 19° W visible
